Time,TemperatureF,DewpointF,PressureIn,WindDirection,WindDirectionDegrees,WindSpeedMPH,WindSpeedGustMPH,Humidity,HourlyPrecipIn,Conditions,Clouds,dailyrainin,SoftwareType,DateUTC
2013-11-01 00:04:00,73.0,71.5,29.85,South,180,0.0,-999.0,95,-99.99,,,0.00,Acu-Link.com,2013-11-01 04:04:00,
2013-11-01 00:19:00,73.0,71.5,29.86,SSE,157,0.0,-999.0,95,-99.99,,,0.00,Acu-Link.com,2013-11-01 04:19:00,
2013-11-01 00:34:00,73.0,71.5,29.84,SSE,157,0.0,-999.0,95,-99.99,,,0.00,Acu-Link.com,2013-11-01 04:34:00,
2013-11-01 00:50:00,73.2,71.7,29.84,SSE,157,0.0,-999.0,95,-99.99,,,0.00,Acu-Link.com,2013-11-01 04:50:00,
2013-11-01 01:05:00,73.4,71.9,29.84,South,180,0.0,-999.0,95,-99.99,,,0.00,Acu-Link.com,2013-11-01 05:05:00,
2013-11-01 01:20:00,73.2,71.7,29.84,SSW,202,0.0,-999.0,95,-99.99,,,0.00,Acu-Link.com,2013-11-01 05:20:00,
2013-11-01 01:35:00,73.4,71.9,29.83,ESE,112,1.7,-999.0,95,-99.99,,,0.00,Acu-Link.com,2013-11-01 05:35:00,
2013-11-01 01:51:00,73.2,71.7,29.83,SE,135,0.0,-999.0,95,-99.99,,,0.00,Acu-Link.com,2013-11-01 05:51:00,
2013-11-01 02:06:00,73.0,71.5,29.83,SSE,157,0.0,-999.0,95,-99.99,,,0.00,Acu-Link.com,2013-11-01 06:06:00,
2013-11-01 02:21:00,72.7,71.2,29.82,South,180,0.0,-999.0,95,-99.99,,,0.00,Acu-Link.com,2013-11-01 06:21:00,
2013-11-01 02:36:00,72.7,71.5,29.82,South,180,0.0,-999.0,96,-99.99,,,0.00,Acu-Link.com,2013-11-01 06:36:00,
2013-11-01 02:51:00,72.7,71.5,29.81,SW,225,0.0,-999.0,96,-99.99,,,0.00,Acu-Link.com,2013-11-01 06:51:00,
2013-11-01 03:06:00,72.7,71.5,29.81,SSW,202,0.0,-999.0,96,-99.99,,,0.00,Acu-Link.com,2013-11-01 07:06:00,
2013-11-01 03:21:00,72.3,71.1,29.81,SSW,202,0.0,-999.0,96,-99.99,,,0.00,Acu-Link.com,2013-11-01 07:21:00,
2013-11-01 03:37:00,72.1,70.9,29.81,South,180,0.0,-999.0,96,-99.99,,,0.00,Acu-Link.com,2013-11-01 07:37:00,
2013-11-01 03:52:00,72.1,70.9,29.81,South,180,0.0,-999.0,96,-99.99,,,0.00,Acu-Link.com,2013-11-01 07:52:00,
2013-11-01 04:07:00,72.0,70.8,29.81,South,180,0.0,-999.0,96,-99.99,,,0.00,Acu-Link.com,2013-11-01 08:07:00,
2013-11-01 04:22:00,72.0,70.8,29.81,West,270,0.0,-999.0,96,-99.99,,,0.00,Acu-Link.com,2013-11-01 08:22:00,
2013-11-01 04:37:00,72.1,70.9,29.80,SE,135,0.0,-999.0,96,-99.99,,,0.00,Acu-Link.com,2013-11-01 08:37:00,
2013-11-01 04:52:00,72.3,71.4,29.80,West,270,0.0,-999.0,97,-99.99,,,0.00,Acu-Link.com,2013-11-01 08:52:00,
2013-11-01 05:08:00,72.3,71.4,29.80,SW,225,0.0,-999.0,97,-99.99,,,0.00,Acu-Link.com,2013-11-01 09:08:00,
2013-11-01 05:23:00,72.3,71.4,29.80,West,270,0.0,-999.0,97,-99.99,,,0.00,Acu-Link.com,2013-11-01 09:23:00,
2013-11-01 05:38:00,72.1,71.2,29.82,WSW,247,0.0,-999.0,97,-99.99,,,0.00,Acu-Link.com,2013-11-01 09:38:00,
2013-11-01 05:53:00,72.5,71.6,29.81,SSE,157,0.0,-999.0,97,-99.99,,,0.00,Acu-Link.com,2013-11-01 09:53:00,
2013-11-01 06:09:00,72.5,71.6,29.82,WSW,247,0.0,-999.0,97,-99.99,,,0.00,Acu-Link.com,2013-11-01 10:09:00,
2013-11-01 06:24:00,72.5,71.6,29.82,SW,225,0.0,-999.0,97,-99.99,,,0.00,Acu-Link.com,2013-11-01 10:24:00,
2013-11-01 06:39:00,72.3,71.4,29.82,SSW,202,0.0,-999.0,97,-99.99,,,0.00,Acu-Link.com,2013-11-01 10:39:00,
2013-11-01 06:54:00,71.8,70.9,29.83,South,180,0.0,-999.0,97,-99.99,,,0.00,Acu-Link.com,2013-11-01 10:54:00,
2013-11-01 07:09:00,71.6,70.7,29.82,West,270,0.0,-999.0,97,-99.99,,,0.00,Acu-Link.com,2013-11-01 11:09:00,
2013-11-01 07:25:00,71.2,70.3,29.83,SE,135,0.0,-999.0,97,-99.99,,,0.00,Acu-Link.com,2013-11-01 11:25:00,
2013-11-01 07:40:00,70.7,69.8,29.83,West,270,0.0,-999.0,97,-99.99,,,0.00,Acu-Link.com,2013-11-01 11:40:00,
2013-11-01 07:55:00,70.7,70.1,29.83,SSW,202,0.0,-999.0,98,-99.99,,,0.00,Acu-Link.com,2013-11-01 11:55:00,
2013-11-01 08:10:00,71.6,71.3,29.83,South,180,0.0,-999.0,99,-99.99,,,0.00,Acu-Link.com,2013-11-01 12:10:00,
2013-11-01 08:26:00,72.0,71.7,29.83,WSW,247,1.1,-999.0,99,-99.99,,,0.00,Acu-Link.com,2013-11-01 12:26:00,
2013-11-01 08:41:00,72.7,71.8,29.83,West,270,0.0,-999.0,97,-99.99,,,0.00,Acu-Link.com,2013-11-01 12:41:00,
2013-11-01 08:56:00,75.2,72.7,29.84,SW,225,0.0,-999.0,92,-99.99,,,0.00,Acu-Link.com,2013-11-01 12:56:00,
2013-11-01 09:11:00,77.0,73.5,29.84,WSW,247,4.2,-999.0,89,-99.99,,,0.00,Acu-Link.com,2013-11-01 13:11:00,
2013-11-01 09:27:00,78.6,74.0,29.83,East,90,0.0,-999.0,86,-99.99,,,0.00,Acu-Link.com,2013-11-01 13:27:00,
2013-11-01 09:42:00,80.1,74.8,29.84,SW,225,1.7,-999.0,84,-99.99,,,0.00,Acu-Link.com,2013-11-01 13:42:00,
2013-11-01 09:57:00,81.1,74.7,29.83,SSW,202,4.7,-999.0,81,-99.99,,,0.00,Acu-Link.com,2013-11-01 13:57:00,
2013-11-01 10:12:00,80.2,74.2,29.83,WSW,247,4.2,-999.0,82,-99.99,,,0.00,Acu-Link.com,2013-11-01 14:12:00,
2013-11-01 10:27:00,80.2,74.6,29.82,SW,225,8.3,-999.0,83,-99.99,,,0.00,Acu-Link.com,2013-11-01 14:27:00,
2013-11-01 10:43:00,81.5,75.1,29.83,SSW,202,7.3,-999.0,81,-99.99,,,0.00,Acu-Link.com,2013-11-01 14:43:00,
2013-11-01 10:58:00,81.9,74.7,29.82,SSW,202,8.9,-999.0,79,-99.99,,,0.00,Acu-Link.com,2013-11-01 14:58:00,
2013-11-01 11:13:00,83.5,75.1,29.82,SSE,157,6.8,-999.0,76,-99.99,,,0.00,Acu-Link.com,2013-11-01 15:13:00,
2013-11-01 11:28:00,84.9,74.8,29.82,SSW,202,3.7,-999.0,72,-99.99,,,0.00,Acu-Link.com,2013-11-01 15:28:00,
2013-11-01 11:43:00,84.4,73.9,29.80,SSW,202,6.8,-999.0,71,-99.99,,,0.00,Acu-Link.com,2013-11-01 15:43:00,
2013-11-01 11:58:00,84.9,74.0,29.80,SSW,202,9.4,-999.0,70,-99.99,,,0.00,Acu-Link.com,2013-11-01 15:58:00,
2013-11-01 12:14:00,85.5,73.7,29.79,SSE,157,5.3,-999.0,68,-99.99,,,0.00,Acu-Link.com,2013-11-01 16:14:00,
2013-11-01 12:29:00,86.4,73.2,29.80,SSW,202,5.8,-999.0,65,-99.99,,,0.00,Acu-Link.com,2013-11-01 16:29:00,
2013-11-01 12:44:00,87.3,73.6,29.78,SSW,202,7.3,-999.0,64,-99.99,,,0.00,Acu-Link.com,2013-11-01 16:44:00,
2013-11-01 12:59:00,86.9,72.8,29.77,West,270,8.3,-999.0,63,-99.99,,,0.00,Acu-Link.com,2013-11-01 16:59:00,
2013-11-01 13:14:00,87.6,72.0,29.76,SW,225,7.3,-999.0,60,-99.99,,,0.00,Acu-Link.com,2013-11-01 17:14:00,
2013-11-01 13:30:00,88.2,72.0,29.75,WSW,247,6.8,-999.0,59,-99.99,,,0.00,Acu-Link.com,2013-11-01 17:30:00,
2013-11-01 13:45:00,88.3,72.1,29.75,SSW,202,11.4,-999.0,59,-99.99,,,0.00,Acu-Link.com,2013-11-01 17:45:00,
2013-11-01 14:00:00,88.3,71.6,29.74,SW,225,8.3,-999.0,58,-99.99,,,0.00,Acu-Link.com,2013-11-01 18:00:00,
2013-11-01 14:16:00,88.3,71.6,29.72,WNW,292,3.7,-999.0,58,-99.99,,,0.00,Acu-Link.com,2013-11-01 18:16:00,
2013-11-01 14:31:00,89.2,71.9,29.73,SSW,202,5.8,-999.0,57,-99.99,,,0.00,Acu-Link.com,2013-11-01 18:31:00,
2013-11-01 14:46:00,88.9,70.1,29.72,WSW,247,5.3,-999.0,54,-99.99,,,0.00,Acu-Link.com,2013-11-01 18:46:00,
2013-11-01 15:01:00,89.1,70.3,29.72,ESE,112,4.2,-999.0,54,-99.99,,,0.00,Acu-Link.com,2013-11-01 19:01:00,
2013-11-01 15:17:00,89.1,69.1,29.72,SSW,202,5.3,-999.0,52,-99.99,,,0.00,Acu-Link.com,2013-11-01 19:17:00,
2013-11-01 15:32:00,88.3,69.5,29.71,South,180,4.2,-999.0,54,-99.99,,,0.00,Acu-Link.com,2013-11-01 19:32:00,
2013-11-01 15:47:00,89.1,70.3,29.71,WSW,247,6.3,-999.0,54,-99.99,,,0.00,Acu-Link.com,2013-11-01 19:47:00,
2013-11-01 16:02:00,89.1,70.3,29.71,SSW,202,5.8,-999.0,54,-99.99,,,0.00,Acu-Link.com,2013-11-01 20:02:00,
2013-11-01 16:17:00,88.5,69.1,29.69,SW,225,5.3,-999.0,53,-99.99,,,0.00,Acu-Link.com,2013-11-01 20:17:00,
2013-11-01 16:32:00,88.5,69.7,29.70,WSW,247,6.3,-999.0,54,-99.99,,,0.00,Acu-Link.com,2013-11-01 20:32:00,
2013-11-01 16:48:00,88.5,70.2,29.70,South,180,7.8,-999.0,55,-99.99,,,0.00,Acu-Link.com,2013-11-01 20:48:00,
2013-11-01 17:03:00,87.3,70.7,29.70,SE,135,6.3,-999.0,58,-99.99,,,0.00,Acu-Link.com,2013-11-01 21:03:00,
2013-11-01 17:18:00,88.3,71.1,29.71,WSW,247,3.2,-999.0,57,-99.99,,,0.00,Acu-Link.com,2013-11-01 21:18:00,
2013-11-01 17:33:00,87.4,70.3,29.69,SSW,202,4.2,-999.0,57,-99.99,,,0.00,Acu-Link.com,2013-11-01 21:33:00,
2013-11-01 17:48:00,87.8,70.1,29.69,South,180,3.2,-999.0,56,-99.99,,,0.00,Acu-Link.com,2013-11-01 21:48:00,
2013-11-01 18:03:00,87.1,70.0,29.70,SW,225,2.2,-999.0,57,-99.99,,,0.00,Acu-Link.com,2013-11-01 22:03:00,
2013-11-01 18:18:00,85.8,69.8,29.71,WNW,292,0.0,-999.0,59,-99.99,,,0.00,Acu-Link.com,2013-11-01 22:18:00,
2013-11-01 18:34:00,84.6,69.6,29.71,SW,225,1.7,-999.0,61,-99.99,,,0.00,Acu-Link.com,2013-11-01 22:34:00,
2013-11-01 18:49:00,83.1,69.6,29.72,South,180,0.0,-999.0,64,-99.99,,,0.00,Acu-Link.com,2013-11-01 22:49:00,
2013-11-01 19:04:00,81.7,69.7,29.72,South,180,0.0,-999.0,67,-99.99,,,0.00,Acu-Link.com,2013-11-01 23:04:00,
2013-11-01 19:19:00,80.2,69.5,29.71,South,180,0.0,-999.0,70,-99.99,,,0.00,Acu-Link.com,2013-11-01 23:19:00,
2013-11-01 19:34:00,79.3,69.5,29.72,SSE,157,0.0,-999.0,72,-99.99,,,0.00,Acu-Link.com,2013-11-01 23:34:00,
2013-11-01 19:49:00,78.3,69.3,29.72,SSE,157,0.0,-999.0,74,-99.99,,,0.00,Acu-Link.com,2013-11-01 23:49:00,
2013-11-01 20:04:00,77.2,69.4,29.72,SW,225,0.0,-999.0,77,-99.99,,,0.00,Acu-Link.com,2013-11-02 00:04:00,
2013-11-01 20:19:00,76.5,69.5,29.73,West,270,0.0,-999.0,79,-99.99,,,0.00,Acu-Link.com,2013-11-02 00:19:00,
2013-11-01 20:35:00,76.6,69.2,29.73,SW,225,0.0,-999.0,78,-99.99,,,0.00,Acu-Link.com,2013-11-02 00:35:00,
2013-11-01 20:50:00,76.1,69.1,29.73,WSW,247,0.0,-999.0,79,-99.99,,,0.00,Acu-Link.com,2013-11-02 00:50:00,
2013-11-01 21:05:00,76.3,69.3,29.73,SSE,157,0.0,-999.0,79,-99.99,,,0.00,Acu-Link.com,2013-11-02 01:05:00,
2013-11-01 21:20:00,76.1,68.7,29.74,SSE,157,0.0,-999.0,78,-99.99,,,0.00,Acu-Link.com,2013-11-02 01:20:00,
2013-11-01 21:35:00,75.7,68.7,29.73,WSW,247,0.0,-999.0,79,-99.99,,,0.00,Acu-Link.com,2013-11-02 01:35:00,
2013-11-01 21:51:00,74.8,68.2,29.74,WSW,247,0.0,-999.0,80,-99.99,,,0.00,Acu-Link.com,2013-11-02 01:51:00,
2013-11-01 22:06:00,74.7,68.5,29.74,South,180,0.0,-999.0,81,-99.99,,,0.00,Acu-Link.com,2013-11-02 02:06:00,
2013-11-01 22:21:00,74.1,68.2,29.75,SSE,157,0.0,-999.0,82,-99.99,,,0.00,Acu-Link.com,2013-11-02 02:21:00,
2013-11-01 22:37:00,73.6,68.8,29.75,SSW,202,0.0,-999.0,85,-99.99,,,0.00,Acu-Link.com,2013-11-02 02:37:00,
2013-11-01 22:52:00,73.2,68.4,29.75,West,270,0.0,-999.0,85,-99.99,,,0.00,Acu-Link.com,2013-11-02 02:52:00,
2013-11-01 23:07:00,72.9,68.5,29.76,West,270,0.0,-999.0,86,-99.99,,,0.00,Acu-Link.com,2013-11-02 03:07:00,
2013-11-01 23:22:00,72.5,68.1,29.75,SSE,157,0.0,-999.0,86,-99.99,,,0.00,Acu-Link.com,2013-11-02 03:22:00,
2013-11-01 23:38:00,72.5,68.4,29.75,South,180,0.0,-999.0,87,-99.99,,,0.00,Acu-Link.com,2013-11-02 03:38:00,
2013-11-01 23:53:00,72.3,68.2,29.74,South,180,1.1,-999.0,87,-99.99,,,0.00,Acu-Link.com,2013-11-02 03:53:00,